Location: *
(37.4917°N, 71.5558°E)
Time: 08:06:44
(UTC+00:00)

Cosmos 1833 Rocket - Pass Details

Date: 09 April 2020
Orbit: 834 x 838 km, 71.0° (Epoch: 03 June)

Event Time Altitude Azimuth Distance (km) Brightness Sun altitude
Exits shadow 17:15:56 27° 0° (N) 1,565 4.4 -36.7°
Drops below altitude 10° 17:18:32 10° 13° (NNE) 2,456 5.5 -37.0°
Sets 17:21:03 0° 18° (NNE) 3,393 6.3 -37.3°
